| time (UTC) | temp F | wind direction | speed MPH | gust MPH | rain 1hr in | rain 24hr in | rain mn in | humidity % | barometer mb |
| 20260505140223 | 58 | 338 | 3.0 | 5.0 | 0.00 | 1.24 | 1.24 | 99 | 1022.0 |
| 20260505130147 | 57 | 333 | 7.0 | 8.0 | 0.24 | 1.19 | 1.19 | 99 | 1022.6 |
| 20260505124637 | 57 | 320 | 1.0 | 3.0 | 0.24 | 1.12 | 1.12 | 99 | 1022.6 |
| 20260505124133 | 57 | 246 | 3.0 | 6.0 | 0.31 | 1.10 | 1.10 | 99 | 1022.3 |
| 20260505123629 | 57 | 287 | 3.0 | 5.0 | 0.35 | 1.08 | 1.08 | 99 | 1022.5 |
| 20260505123126 | 57 | 274 | 2.0 | 2.0 | 0.24 | 1.05 | 1.05 | 99 | 1022.3 |
| 20260505122623 | 57 | 215 | 3.0 | 5.0 | 0.31 | 1.03 | 1.03 | 99 | 1022.0 |
| 20260505122120 | 58 | 273 | 4.0 | 7.0 | 0.24 | 1.01 | 1.01 | 99 | 1022.2 |
| 20260505121617 | 58 | 173 | 7.0 | 9.0 | 0.24 | 0.98 | 0.98 | 99 | 1022.5 |
| 20260505121114 | 59 | 124 | 2.0 | 5.0 | 0.78 | 0.97 | 0.97 | 99 | 1022.0 |
| 20260505120610 | 59 | 327 | 4.0 | 9.0 | 1.75 | 0.95 | 0.95 | 98 | 1021.6 |
| 20260505120106 | 62 | 326 | 5.0 | 9.0 | 2.15 | 0.85 | 0.85 | 98 | 1021.4 |
| 20260505115600 | 64 | 218 | 2.0 | 2.0 | 1.21 | 0.65 | 0.65 | 96 | 1021.8 |
| 20260505115058 | 66 | 302 | 3.0 | 3.0 | 0.31 | 0.49 | 0.49 | 90 | 1021.1 |
| 20260505114555 | 67 | 322 | 3.0 | 3.0 | 0.00 | 0.44 | 0.44 | 85 | 1021.0 |
| 20260505114051 | 68 | 334 | 2.0 | 2.0 | 0.00 | 0.44 | 0.44 | 82 | 1020.6 |
| 20260505113547 | 68 | 314 | 2.0 | 3.0 | 0.00 | 0.44 | 0.44 | 81 | 1020.7 |
| 20260505113044 | 69 | 299 | 4.0 | 5.0 | 0.00 | 0.44 | 0.44 | 80 | 1020.7 |
| 20260505112540 | 69 | 319 | 4.0 | 6.0 | 0.00 | 0.44 | 0.44 | 79 | 1020.4 |
| 20260505112038 | 69 | 319 | 7.0 | 10.0 | 0.00 | 0.44 | 0.44 | 79 | 1020.7 |
| 20260505111532 | 69 | 18 | 4.0 | 5.0 | 0.00 | 0.44 | 0.44 | 79 | 1020.5 |
| 20260505111029 | 69 | 349 | 4.0 | 7.0 | 0.00 | 0.44 | 0.44 | 79 | 1020.6 |
| 20260505110525 | 69 | 13 | 5.0 | 6.0 | 0.00 | 0.44 | 0.44 | 78 | 1020.6 |
| 20260505101958 | 69 | 3 | 10.0 | 11.0 | 0.00 | 0.44 | 0.44 | 77 | 1021.9 |
| 20260505101455 | 69 | 7 | 7.0 | 10.0 | 0.00 | 0.44 | 0.44 | 78 | 1022.5 |
| 20260505100952 | 69 | 343 | 8.0 | 10.0 | 0.00 | 0.44 | 0.44 | 78 | 1022.7 |
| 20260505100449 | 69 | 31 | 10.0 | 10.0 | 0.00 | 0.44 | 0.44 | 78 | 1022.6 |
| 20260505095945 | 69 | 322 | 14.0 | 20.0 | 0.00 | 0.44 | 0.44 | 77 | 1022.7 |
| 20260505095442 | 69 | 356 | 9.0 | 9.0 | 0.00 | 0.44 | 0.44 | 77 | 1022.7 |
| 20260505094938 | 69 | 5 | 14.0 | 21.0 | 0.00 | 0.44 | 0.44 | 77 | 1023.3 |
| 20260505094435 | 69 | 340 | 11.0 | 14.0 | 0.00 | 0.44 | 0.44 | 77 | 1022.9 |
| 20260505093931 | 69 | 8 | 5.0 | 7.0 | 0.00 | 0.44 | 0.44 | 78 | 1022.7 |
| 20260505093428 | 68 | 355 | 9.0 | 13.0 | 0.00 | 0.44 | 0.44 | 79 | 1023.2 |
| 20260505092925 | 68 | 345 | 12.0 | 15.0 | 0.00 | 0.44 | 0.44 | 79 | 1023.3 |
| 20260505092423 | 69 | 7 | 8.0 | 10.0 | 0.00 | 0.44 | 0.44 | 79 | 1023.3 |
| 20260505091920 | 69 | 13 | 11.0 | 14.0 | 0.00 | 0.44 | 0.44 | 77 | 1023.5 |
| 20260505091418 | 68 | 31 | 4.0 | 6.0 | 0.00 | 0.44 | 0.44 | 79 | 1023.5 |
| 20260505090916 | 67 | 25 | 7.0 | 8.0 | 0.00 | 0.44 | 0.44 | 80 | 1023.7 |
| 20260505090414 | 67 | 3 | 12.0 | 15.0 | 0.00 | 0.44 | 0.44 | 80 | 1023.7 |
| 20260505085911 | 66 | 13 | 9.0 | 11.0 | 0.00 | 0.44 | 0.44 | 81 | 1023.7 |
| 20260505085409 | 66 | 353 | 7.0 | 8.0 | 0.00 | 0.44 | 0.44 | 81 | 1024.0 |
| 20260505084906 | 66 | 35 | 4.0 | 5.0 | 0.00 | 0.44 | 0.44 | 82 | 1024.2 |
| 20260505084405 | 65 | 6 | 5.0 | 7.0 | 0.00 | 0.44 | 0.44 | 83 | 1024.2 |
| 20260505083902 | 65 | 2 | 10.0 | 11.0 | 0.00 | 0.44 | 0.44 | 82 | 1024.7 |
| 20260505083359 | 65 | 22 | 5.0 | 8.0 | 0.00 | 0.44 | 0.44 | 82 | 1024.7 |
| 20260505082855 | 66 | 342 | 7.0 | 13.0 | 0.00 | 0.44 | 0.44 | 82 | 1024.5 |
| 20260505082351 | 66 | 323 | 7.0 | 9.0 | 0.00 | 0.44 | 0.44 | 83 | 1024.5 |
| 20260505081848 | 66 | 316 | 4.0 | 6.0 | 0.00 | 0.44 | 0.44 | 83 | 1024.7 |
| 20260505081345 | 66 | 5 | 3.0 | 3.0 | 0.00 | 0.44 | 0.44 | 83 | 1024.8 |
| 20260505080842 | 65 | 339 | 5.0 | 6.0 | 0.00 | 0.44 | 0.44 | 85 | 1024.9 |
| 20260505080338 | 64 | 351 | 6.0 | 8.0 | 0.00 | 0.44 | 0.44 | 86 | 1024.8 |
| 20260505075833 | 63 | 5 | 7.0 | 8.0 | 0.00 | 0.44 | 0.44 | 89 | 1025.2 |
| 20260505075330 | 62 | 5 | 4.0 | 7.0 | 0.00 | 0.44 | 0.44 | 95 | 1025.0 |
| 20260505074828 | 61 | 0 | 4.0 | 5.0 | 0.00 | 0.44 | 0.44 | 99 | 1025.1 |
| 20260505074325 | 61 | 358 | 6.0 | 8.0 | 0.00 | 0.44 | 0.44 | 99 | 1025.2 |
| 20260505073822 | 61 | 22 | 3.0 | 3.0 | 0.00 | 0.44 | 0.44 | 99 | 1025.1 |
| 20260505073320 | 62 | 96 | 3.0 | 5.0 | 0.00 | 0.44 | 0.44 | 99 | 1025.3 |
| 20260505072817 | 62 | 81 | 3.0 | 5.0 | 0.00 | 0.44 | 0.44 | 99 | 1025.5 |
| 20260505072313 | 60 | 35 | 0.0 | 0.0 | 0.00 | 0.44 | 0.44 | 99 | 1025.5 |
| 20260505071809 | 61 | 28 | 0.0 | 0.0 | 0.00 | 0.44 | 0.44 | 99 | 1025.7 |
| 20260505071306 | 60 | 28 | 1.0 | 2.0 | 0.00 | 0.44 | 0.44 | 99 | 1025.5 |
| 20260505070804 | 60 | 77 | 0.0 | 0.0 | 0.00 | 0.44 | 0.44 | 99 | 1025.7 |
| 20260505070300 | 60 | 77 | 0.0 | 0.0 | 0.00 | 0.44 | 0.44 | 99 | 1025.7 |
| 20260505065755 | 59 | 89 | 0.0 | 0.0 | 0.00 | 0.44 | 0.44 | 99 | 1025.7 |
| 20260505065252 | 59 | 52 | 0.0 | 0.0 | 0.00 | 0.44 | 0.44 | 99 | 1026.0 |
| 20260505064749 | 59 | 70 | 0.0 | 0.0 | 0.00 | 0.44 | 0.44 | 99 | 1025.7 |
| 20260505064246 | 58 | 41 | 0.0 | 0.0 | 0.00 | 0.44 | 0.44 | 99 | 1025.8 |
| 20260505063744 | 58 | 41 | 0.0 | 0.0 | 0.00 | 0.44 | 0.44 | 99 | 1025.9 |
| 20260505063240 | 58 | 51 | 0.0 | 0.0 | 0.00 | 0.44 | 0.44 | 99 | 1026.0 |
| 20260505062736 | 58 | 36 | 0.0 | 0.0 | 0.00 | 0.44 | 0.44 | 99 | 1025.8 |
| 20260505062234 | 58 | 19 | 0.0 | 0.0 | 0.00 | 0.44 | 0.44 | 99 | 1026.0 |
| 20260505061731 | 58 | 14 | 0.0 | 0.0 | 0.00 | 0.44 | 0.44 | 99 | 1025.8 |
| 20260505061229 | 59 | 23 | 0.0 | 0.0 | 0.00 | 0.44 | 0.44 | 99 | 1025.8 |
| 20260505060726 | 59 | 28 | 0.0 | 0.0 | 0.00 | 0.44 | 0.44 | 99 | 1025.8 |
| 20260505060223 | 58 | 19 | 0.0 | 0.0 | 0.00 | 0.44 | 0.44 | 99 | 1025.8 |
| 20260505055718 | 58 | 13 | 0.0 | 0.0 | 0.00 | 0.44 | 0.44 | 99 | 1025.9 |
| 20260505055215 | 58 | 94 | 0.0 | 0.0 | 0.00 | 0.44 | 0.44 | 99 | 1025.9 |
| 20260505054713 | 58 | 87 | 0.0 | 0.0 | 0.00 | 0.44 | 0.44 | 99 | 1025.8 |
| 20260505054210 | 58 | 87 | 0.0 | 0.0 | 0.00 | 0.44 | 0.44 | 99 | 1025.7 |
| 20260505053708 | 58 | 87 | 0.0 | 0.0 | 0.00 | 0.44 | 0.44 | 99 | 1025.8 |
| 20260505053204 | 58 | 87 | 0.0 | 0.0 | 0.00 | 0.44 | 0.44 | 99 | 1025.6 |
| 20260505052702 | 57 | 87 | 0.0 | 0.0 | 0.00 | 0.44 | 0.44 | 99 | 1025.9 |
| 20260505052158 | 57 | 87 | 0.0 | 0.0 | 0.00 | 0.44 | 0.44 | 99 | 1026.2 |
| 20260505051656 | 57 | 87 | 0.0 | 0.0 | 0.00 | 0.44 | 0.44 | 99 | 1025.9 |
| 20260505051154 | 57 | 87 | 0.0 | 0.0 | 0.00 | 0.44 | 0.44 | 99 | 1025.8 |
| 20260505050651 | 56 | 87 | 0.0 | 0.0 | 0.00 | 0.44 | 0.44 | 99 | 1026.0 |
| 20260505050149 | 56 | 87 | 0.0 | 0.0 | 0.00 | 0.44 | 0.44 | 99 | 1025.8 |
| 20260505041619 | 57 | 78 | 0.0 | 0.0 | 0.00 | 0.44 | 0.44 | 99 | 1025.9 |
| 20260505041116 | 57 | 76 | 0.0 | 0.0 | 0.00 | 0.44 | 0.44 | 99 | 1026.2 |
| 20260505040613 | 57 | 70 | 0.0 | 0.0 | 0.00 | 0.44 | 0.44 | 99 | 1026.3 |
| 20260505040110 | 57 | 37 | 0.0 | 0.0 | 0.05 | 0.44 | 0.44 | 99 | 1026.0 |
| 20260505035607 | 57 | 20 | 0.0 | 0.0 | 0.12 | 0.44 | 0.44 | 99 | 1025.8 |
| 20260505035103 | 56 | 45 | 0.0 | 0.0 | 0.07 | 0.43 | 0.43 | 99 | 1025.8 |
| 20260505034600 | 56 | 33 | 0.0 | 0.0 | 0.07 | 0.43 | 0.43 | 99 | 1025.9 |
| 20260505034056 | 56 | 40 | 0.0 | 0.0 | 0.00 | 0.42 | 0.42 | 99 | 1026.5 |
| 20260505033553 | 56 | 56 | 0.0 | 0.0 | 0.00 | 0.42 | 0.42 | 99 | 1025.9 |
| 20260505033052 | 56 | 50 | 0.0 | 0.0 | 0.00 | 0.42 | 0.42 | 99 | 1025.8 |
| 20260505032549 | 57 | 5 | 0.0 | 0.0 | 0.00 | 0.42 | 0.42 | 99 | 1025.9 |
| 20260505032045 | 57 | 11 | 0.0 | 0.0 | 0.00 | 0.42 | 0.42 | 99 | 1025.8 |
| 20260505031543 | 57 | 8 | 0.0 | 0.0 | 0.00 | 0.42 | 0.42 | 99 | 1026.2 |
| 20260505031039 | 56 | 108 | 0.0 | 0.0 | 0.00 | 0.42 | 0.42 | 99 | 1025.7 |
| 20260505030536 | 57 | 99 | 0.0 | 0.0 | 0.00 | 0.42 | 0.42 | 99 | 1025.8 |
| 20260505030032 | 57 | 116 | 0.0 | 0.0 | 0.00 | 0.42 | 0.42 | 99 | 1025.7 |
| 20260505025528 | 57 | 116 | 0.0 | 0.0 | 0.00 | 0.42 | 0.42 | 99 | 1025.6 |
| 20260505025027 | 57 | 223 | 0.0 | 0.0 | 0.00 | 0.42 | 0.42 | 99 | 1025.8 |
| 20260505024524 | 57 | 117 | 0.0 | 0.0 | 0.00 | 0.42 | 0.42 | 99 | 1025.7 |
| 20260505024021 | 56 | 129 | 0.0 | 0.0 | 0.00 | 0.42 | 0.42 | 99 | 1025.7 |
| 20260505023518 | 56 | 114 | 0.0 | 0.0 | 0.00 | 0.42 | 0.42 | 99 | 1025.9 |
| 20260505023015 | 57 | 50 | 0.0 | 0.0 | 0.00 | 0.42 | 0.42 | 99 | 1025.8 |
| 20260505022513 | 57 | 52 | 0.0 | 0.0 | 0.00 | 0.42 | 0.42 | 99 | 1025.6 |
| 20260505022010 | 57 | 52 | 0.0 | 1.0 | 0.00 | 0.42 | 0.42 | 99 | 1025.8 |
| 20260505021506 | 57 | 78 | 0.0 | 0.0 | 0.05 | 0.42 | 0.42 | 99 | 1026.0 |
| 20260505021003 | 57 | 47 | 1.0 | 1.0 | 0.12 | 0.42 | 0.42 | 99 | 1026.2 |
| 20260505020457 | 57 | 57 | 1.0 | 1.0 | 0.14 | 0.41 | 0.41 | 99 | 1025.9 |
| 20260505015954 | 57 | 24 | 0.0 | 0.0 | 0.19 | 0.40 | 0.40 | 99 | 1026.5 |
| 20260505015452 | 57 | 24 | 1.0 | 2.0 | 0.17 | 0.39 | 0.39 | 99 | 1026.6 |
| 20260505014949 | 57 | 351 | 2.0 | 3.0 | 0.19 | 0.38 | 0.38 | 99 | 1027.3 |
| 20260505014446 | 57 | 359 | 2.0 | 2.0 | 0.19 | 0.36 | 0.36 | 98 | 1027.2 |
| 20260505013943 | 57 | 320 | 5.0 | 7.0 | 0.17 | 0.35 | 0.35 | 98 | 1027.4 |
| 20260505013440 | 57 | 322 | 7.0 | 8.0 | 0.24 | 0.33 | 0.33 | 98 | 1027.4 |
| 20260505012937 | 57 | 260 | 1.0 | 2.0 | 0.31 | 0.32 | 0.32 | 98 | 1027.4 |
| 20260505012435 | 57 | 226 | 1.0 | 1.0 | 0.31 | 0.30 | 0.30 | 98 | 1027.5 |
| 20260505011932 | 57 | 222 | 4.0 | 7.0 | 0.35 | 0.27 | 0.27 | 98 | 1027.8 |
| 20260505011428 | 57 | 182 | 3.0 | 5.0 | 0.35 | 0.25 | 0.25 | 97 | 1027.7 |
| 20260505010925 | 57 | 334 | 4.0 | 5.0 | 0.40 | 0.22 | 0.22 | 97 | 1027.8 |
| 20260505010420 | 57 | 309 | 1.0 | 2.0 | 0.61 | 0.19 | 0.19 | 96 | 1028.0 |
| 20260505005917 | 57 | 212 | 3.0 | 5.0 | 0.92 | 0.15 | 0.15 | 96 | 1027.7 |
| 20260505005414 | 58 | 207 | 3.0 | 7.0 | 0.54 | 0.09 | 0.09 | 94 | 1027.5 |
| 20260505004911 | 60 | 259 | 5.0 | 7.0 | 0.00 | 0.00 | 0.00 | 87 | 1027.7 |
| 20260505004408 | 61 | 275 | 5.0 | 7.0 | 0.00 | 0.00 | 0.00 | 85 | 1027.4 |
| 20260505003905 | 62 | 299 | 1.0 | 1.0 | 0.00 | 0.00 | 0.00 | 85 | 1026.6 |
| 20260505003402 | 62 | 341 | 3.0 | 5.0 | 0.00 | 0.00 | 0.00 | 84 | 1025.9 |
| 20260505002858 | 62 | 22 | 2.0 | 2.0 | 0.00 | 0.00 | 0.00 | 84 | 1025.9 |
| 20260505002354 | 62 | 26 | 1.0 | 1.0 | 0.00 | 0.00 | 0.00 | 85 | 1026.2 |
| 20260505001853 | 61 | 32 | 0.0 | 1.0 | 0.00 | 0.00 | 0.00 | 86 | 1026.0 |
| 20260505001349 | 61 | 28 | 1.0 | 1.0 | 0.00 | 0.00 | 0.00 | 86 | 1026.2 |
| 20260505000847 | 61 | 28 | 0.0 | 0.0 | 0.00 | 0.00 | 0.00 | 87 | 1026.2 |
| 20260505000344 | 61 | 28 | 0.0 | 0.0 | 0.00 | 0.00 | 0.00 | 87 | 1026.2 |
| 20260504235841 | 61 | 28 | 0.0 | 0.0 | 0.00 | 0.00 | 0.00 | 87 | 1026.3 |
| 20260504235338 | 61 | 28 | 0.0 | 0.0 | 0.00 | 0.00 | 0.00 | 86 | 1026.3 |
| 20260504234835 | 61 | 28 | 0.0 | 0.0 | 0.00 | 0.00 | 0.00 | 86 | 1026.3 |
| 20260504234332 | 61 | 28 | 0.0 | 0.0 | 0.00 | 0.00 | 0.00 | 86 | 1026.2 |
| 20260504233829 | 61 | 28 | 0.0 | 0.0 | 0.00 | 0.00 | 0.00 | 86 | 1026.4 |
| 20260504233324 | 62 | 26 | 0.0 | 0.0 | 0.00 | 0.00 | 0.00 | 85 | 1026.5 |
| 20260504232821 | 62 | 32 | 0.0 | 0.0 | 0.00 | 0.00 | 0.00 | 84 | 1026.4 |
| 20260504232319 | 62 | 23 | 0.0 | 0.0 | 0.00 | 0.00 | 0.00 | 84 | 1026.4 |
| 20260504231815 | 62 | 23 | 0.0 | 0.0 | 0.00 | 0.00 | 0.00 | 85 | 1026.5 |
| 20260504231312 | 61 | 25 | 0.0 | 0.0 | 0.00 | 0.00 | 0.00 | 85 | 1026.3 |
| 20260504230808 | 61 | 26 | 0.0 | 0.0 | 0.00 | 0.00 | 0.00 | 86 | 1026.4 |
| 20260504230306 | 61 | 26 | 0.0 | 0.0 | 0.00 | 0.00 | 0.00 | 86 | 1026.2 |
| 20260504225805 | 61 | 26 | 0.0 | 0.0 | 0.00 | 0.00 | 0.00 | 85 | 1026.4 |
| 20260504225301 | 61 | 26 | 0.0 | 0.0 | 0.00 | 0.00 | 0.00 | 85 | 1026.5 |
| 20260504224758 | 61 | 26 | 0.0 | 0.0 | 0.00 | 0.00 | 0.00 | 86 | 1026.5 |
| 20260504224255 | 61 | 26 | 0.0 | 0.0 | 0.00 | 0.00 | 0.00 | 85 | 1026.6 |
| 20260504223751 | 62 | 26 | 0.0 | 0.0 | 0.00 | 0.00 | 0.00 | 84 | 1026.6 |
| 20260504223247 | 62 | 26 | 0.0 | 0.0 | 0.00 | 0.00 | 0.00 | 83 | 1026.7 |
| 20260504222744 | 62 | 26 | 0.0 | 0.0 | 0.00 | 0.00 | 0.00 | 82 | 1026.5 |
| 20260504222241 | 63 | 26 | 0.0 | 0.0 | 0.00 | 0.00 | 0.00 | 82 | 1026.8 |
| 20260504221739 | 64 | 20 | 0.0 | 0.0 | 0.00 | 0.00 | 0.00 | 80 | 1026.7 |
| 20260504221236 | 64 | 21 | 1.0 | 1.0 | 0.00 | 0.00 | 0.00 | 80 | 1027.0 |
| 20260504220732 | 64 | 20 | 1.0 | 1.0 | 0.00 | 0.00 | 0.00 | 80 | 1027.3 |
| 20260504220229 | 64 | 23 | 0.0 | 1.0 | 0.00 | 0.00 | 0.00 | 80 | 1027.3 |
| 20260504215726 | 64 | 20 | 0.0 | 0.0 | 0.00 | 0.00 | 0.00 | 80 | 1027.1 |
| 20260504215223 | 64 | 19 | 1.0 | 1.0 | 0.00 | 0.00 | 0.00 | 80 | 1027.1 |
| 20260504214719 | 64 | 23 | 1.0 | 1.0 | 0.00 | 0.00 | 0.00 | 80 | 1027.2 |
| 20260504214215 | 64 | 18 | 1.0 | 1.0 | 0.00 | 0.00 | 0.00 | 80 | 1027.3 |
| 20260504213712 | 64 | 12 | 1.0 | 1.0 | 0.00 | 0.00 | 0.00 | 81 | 1027.4 |
| 20260504213209 | 63 | 18 | 1.0 | 1.0 | 0.00 | 0.00 | 0.00 | 81 | 1027.5 |
| 20260504212706 | 63 | 15 | 1.0 | 1.0 | 0.00 | 0.00 | 0.00 | 82 | 1027.4 |
| 20260504212203 | 64 | 10 | 1.0 | 1.0 | 0.00 | 0.00 | 0.00 | 81 | 1027.8 |
| 20260504211700 | 64 | 29 | 2.0 | 2.0 | 0.00 | 0.00 | 0.00 | 81 | 1027.4 |
| 20260504211155 | 64 | 21 | 3.0 | 3.0 | 0.00 | 0.00 | 0.00 | 80 | 1027.7 |
| 20260504210654 | 64 | 1 | 3.0 | 3.0 | 0.00 | 0.00 | 0.00 | 80 | 1027.4 |
| 20260504210150 | 64 | 14 | 4.0 | 5.0 | 0.00 | 0.00 | 0.00 | 80 | 1027.8 |
| 20260504205647 | 64 | 9 | 3.0 | 3.0 | 0.00 | 0.00 | 0.00 | 80 | 1027.8 |
| 20260504205144 | 64 | 15 | 2.0 | 2.0 | 0.00 | 0.00 | 0.00 | 80 | 1027.8 |
| 20260504204643 | 64 | 21 | 3.0 | 3.0 | 0.00 | 0.00 | 0.00 | 80 | 1027.9 |
| 20260504204142 | 64 | 6 | 3.0 | 3.0 | 0.00 | 0.00 | 0.00 | 80 | 1028.0 |
| 20260504203640 | 64 | 8 | 4.0 | 5.0 | 0.00 | 0.00 | 0.00 | 80 | 1028.1 |
| 20260504203137 | 64 | 355 | 3.0 | 5.0 | 0.00 | 0.00 | 0.00 | 81 | 1028.0 |
| 20260504202637 | 64 | 5 | 3.0 | 3.0 | 0.00 | 0.00 | 0.00 | 81 | 1028.1 |
| 20260504202134 | 64 | 11 | 3.0 | 3.0 | 0.00 | 0.00 | 0.00 | 81 | 1028.1 |
| 20260504201631 | 64 | 356 | 3.0 | 3.0 | 0.00 | 0.00 | 0.00 | 82 | 1028.2 |
| 20260504201129 | 64 | 0 | 3.0 | 5.0 | 0.00 | 0.00 | 0.00 | 82 | 1028.1 |
| 20260504200626 | 64 | 343 | 3.0 | 3.0 | 0.00 | 0.00 | 0.00 | 82 | 1028.3 |
| 20260504200122 | 64 | 354 | 3.0 | 5.0 | 0.00 | 0.00 | 0.00 | 82 | 1028.3 |
| 20260504195618 | 64 | 351 | 3.0 | 3.0 | 0.00 | 0.00 | 0.00 | 81 | 1028.1 |
| 20260504195115 | 65 | 6 | 3.0 | 3.0 | 0.00 | 0.00 | 0.00 | 81 | 1028.5 |
| 20260504194612 | 65 | 351 | 4.0 | 5.0 | 0.00 | 0.00 | 0.00 | 81 | 1028.5 |
| 20260504194107 | 65 | 356 | 2.0 | 2.0 | 0.00 | 0.00 | 0.00 | 81 | 1028.6 |
| 20260504193604 | 65 | 9 | 3.0 | 3.0 | 0.00 | 0.00 | 0.00 | 80 | 1028.3 |
| 20260504193103 | 65 | 8 | 2.0 | 3.0 | 0.00 | 0.00 | 0.00 | 80 | 1028.3 |
| 20260504192600 | 65 | 323 | 2.0 | 5.0 | 0.00 | 0.00 | 0.00 | 81 | 1028.2 |
| 20260504192058 | 65 | 341 | 3.0 | 3.0 | 0.00 | 0.00 | 0.00 | 81 | 1028.1 |
| 20260504191556 | 65 | 338 | 2.0 | 2.0 | 0.00 | 0.00 | 0.00 | 81 | 1028.2 |
| 20260504191052 | 65 | 312 | 3.0 | 3.0 | 0.00 | 0.00 | 0.00 | 80 | 1028.2 |
| 20260504190548 | 65 | 332 | 2.0 | 2.0 | 0.00 | 0.00 | 0.00 | 80 | 1028.3 |
| 20260504190044 | 65 | 338 | 2.0 | 2.0 | 0.00 | 0.00 | 0.00 | 80 | 1028.0 |
| 20260504185542 | 66 | 345 | 2.0 | 2.0 | 0.00 | 0.00 | 0.00 | 80 | 1028.0 |
| 20260504185038 | 65 | 353 | 2.0 | 3.0 | 0.00 | 0.00 | 0.00 | 80 | 1028.1 |
| 20260504184534 | 65 | 357 | 1.0 | 2.0 | 0.00 | 0.00 | 0.00 | 81 | 1028.1 |
| 20260504184029 | 65 | 10 | 2.0 | 2.0 | 0.00 | 0.00 | 0.00 | 81 | 1028.1 |
| 20260504183526 | 65 | 6 | 1.0 | 1.0 | 0.00 | 0.00 | 0.00 | 80 | 1027.9 |
| 20260504183025 | 65 | 3 | 3.0 | 3.0 | 0.00 | 0.00 | 0.00 | 80 | 1028.0 |
| 20260504182521 | 66 | 338 | 1.0 | 2.0 | 0.00 | 0.00 | 0.00 | 80 | 1028.1 |
| 20260504182018 | 66 | 335 | 1.0 | 1.0 | 0.00 | 0.00 | 0.00 | 80 | 1028.5 |
| 20260504181515 | 66 | 341 | 3.0 | 3.0 | 0.00 | 0.00 | 0.00 | 79 | 1028.5 |
| 20260504181014 | 66 | 345 | 2.0 | 2.0 | 0.00 | 0.00 | 0.00 | 79 | 1028.1 |
| 20260504180512 | 66 | 352 | 1.0 | 1.0 | 0.00 | 0.00 | 0.00 | 79 | 1028.3 |
| 20260504180011 | 66 | 333 | 1.0 | 2.0 | 0.00 | 0.00 | 0.00 | 79 | 1028.2 |
| 20260504175508 | 67 | 351 | 2.0 | 2.0 | 0.00 | 0.00 | 0.00 | 78 | 1028.1 |
| 20260504175005 | 67 | 323 | 2.0 | 2.0 | 0.00 | 0.00 | 0.00 | 78 | 1028.0 |
| 20260504174503 | 67 | 320 | 2.0 | 2.0 | 0.00 | 0.00 | 0.00 | 78 | 1028.1 |
| 20260504173959 | 67 | 336 | 1.0 | 2.0 | 0.00 | 0.00 | 0.00 | 77 | 1028.3 |
| 20260504173456 | 68 | 348 | 1.0 | 1.0 | 0.00 | 0.00 | 0.00 | 77 | 1028.5 |
| 20260504172953 | 68 | 348 | 2.0 | 2.0 | 0.00 | 0.00 | 0.00 | 76 | 1028.0 |
| 20260504172449 | 68 | 355 | 5.0 | 7.0 | 0.00 | 0.00 | 0.00 | 76 | 1027.9 |
| 20260504171946 | 67 | 337 | 3.0 | 5.0 | 0.00 | 0.00 | 0.00 | 77 | 1028.1 |
| 20260504171443 | 67 | 340 | 2.0 | 2.0 | 0.00 | 0.00 | 0.00 | 78 | 1027.9 |
| 20260504170940 | 67 | 354 | 2.0 | 2.0 | 0.00 | 0.00 | 0.00 | 77 | 1028.0 |
| 20260504170436 | 67 | 339 | 2.0 | 2.0 | 0.00 | 0.00 | 0.00 | 77 | 1028.1 |
| 20260504160355 | 68 | 337 | 0.0 | 1.0 | 0.00 | 0.00 | 0.00 | 76 | 1028.2 |
| 20260504150820 | 71 | 343 | 1.0 | 1.0 | 0.00 | 0.00 | 0.00 | 72 | 1028.1 |
| 20260504150316 | 71 | 339 | 1.0 | 1.0 | 0.00 | 0.00 | 0.00 | 72 | 1028.1 |